time, beta470, beta532, beta650
yyyy/mm/dd HH:MM:SS.fff, counts, counts, counts
2023/07/01 19:00:11.069, 106, 109, 87
2023/07/01 19:00:12.189, 105, 112, 84
2023/07/01 19:00:13.325, 107, 114, 78
2023/07/01 19:00:14.461, 100, 112, 76
2023/07/01 19:00:15.580, 105, 109, 74
2023/07/01 19:00:16.717, 101, 108, 76
2023/07/01 19:00:17.836, 102, 111, 77
2023/07/01 19:00:18.972, 102, 111, 78
2023/07/01 19:00:20.108, 105, 113, 77
2023/07/01 19:00:21.228, 106, 109, 74
2023/07/01 19:00:22.364, 104, 112, 103
2023/07/01 19:00:23.500, 102, 114, 74
2023/07/01 19:00:24.620, 102, 110, 75
2023/07/01 19:00:25.756, 103, 109, 73
2023/07/01 19:00:26.876, 106, 112, 74
2023/07/01 19:00:28.012, 104, 114, 74
2023/07/01 19:00:29.148, 105, 110, 77
2023/07/01 19:00:30.268, 105, 113, 77
2023/07/01 19:00:31.404, 101, 113, 74
2023/07/01 19:00:32.524, 99, 117, 76
2023/07/01 19:00:33.660, 104, 106, 76
2023/07/01 19:00:34.779, 102, 108, 77
2023/07/01 19:00:35.915, 107, 115, 77
2023/07/01 19:00:37.051, 105, 117, 71
2023/07/01 19:00:38.171, 105, 112, 75
2023/07/01 19:00:39.307, 102, 111, 77
2023/07/01 19:00:40.427, 111, 121, 76
2023/07/01 19:00:41.562, 104, 110, 74
2023/07/01 19:00:42.699, 102, 110, 77
2023/07/01 19:00:43.819, 104, 116, 74
2023/07/01 19:00:44.955, 109, 107, 77
2023/07/01 19:00:46.075, 102, 141, 79
2023/07/01 19:00:47.211, 111, 128, 73
2023/07/01 19:00:48.347, 108, 117, 80
2023/07/01 19:00:49.467, 106, 112, 84
2023/07/01 19:00:50.602, 105, 109, 80
2023/07/01 19:00:51.722, 107, 108, 95
2023/07/01 19:00:52.858, 107, 114, 77
2023/07/01 19:00:53.994, 102, 109, 82
2023/07/01 19:00:55.114, 103, 110, 85
2023/07/01 19:00:56.251, 103, 119, 80
2023/07/01 19:00:57.370, 103, 117, 78
2023/07/01 19:00:58.506, 103, 116, 75
2023/07/01 19:00:59.642, 102, 115, 78
2023/07/01 19:01:00.762, 105, 115, 76
2023/07/01 19:01:01.898, 108, 116, 75
2023/07/01 19:01:03.018, 101, 153, 79
2023/07/01 19:01:04.154, 107, 135, 73
2023/07/01 19:01:05.290, 104, 115, 78
2023/07/01 19:01:06.410, 104, 112, 73
2023/07/01 19:01:07.546, 103, 113, 76
2023/07/01 19:01:08.681, 104, 117, 78
2023/07/01 19:01:09.801, 103, 116, 74
2023/07/01 19:01:10.937, 111, 117, 73
2023/07/01 19:01:12.057, 103, 116, 76
2023/07/01 19:01:13.193, 104, 113, 77
2023/07/01 19:01:14.329, 105, 114, 76
2023/07/01 19:01:15.449, 103, 117, 76
2023/07/01 19:01:16.585, 107, 116, 71
2023/07/01 19:01:17.705, 107, 111, 79
2023/07/01 19:01:18.841, 106, 112, 74
2023/07/01 19:01:19.977, 108, 112, 72
2023/07/01 19:01:21.097, 106, 107, 74
2023/07/01 19:01:22.233, 119, 111, 76
2023/07/01 19:01:23.353, 100, 118, 79
2023/07/01 19:01:24.489, 113, 123, 75
2023/07/01 19:01:25.624, 104, 117, 74
2023/07/01 19:01:26.744, 104, 113, 75
2023/07/01 19:01:27.880, 100, 113, 78
2023/07/01 19:01:29.000, 102, 114, 75
2023/07/01 19:01:30.136, 101, 114, 77
2023/07/01 19:01:31.272, 103, 111, 74
2023/07/01 19:01:32.392, 103, 111, 78
2023/07/01 19:01:33.528, 108, 113, 76
2023/07/01 19:01:34.648, 103, 116, 80
2023/07/01 19:01:35.784, 107, 110, 77
2023/07/01 19:01:36.903, 101, 113, 90
2023/07/01 19:01:38.039, 106, 124, 80
2023/07/01 19:01:39.176, 103, 118, 83
2023/07/01 19:01:40.296, 100, 113, 86
2023/07/01 19:01:41.432, 103, 114, 75
2023/07/01 19:01:42.551, 102, 113, 74
2023/07/01 19:01:43.687, 105, 112, 74
2023/07/01 19:01:44.823, 101, 107, 77
2023/07/01 19:01:45.943, 103, 112, 80
2023/07/01 19:01:47.079, 107, 116, 75
2023/07/01 19:01:48.215, 101, 115, 76
2023/07/01 19:01:49.335, 100, 113, 73
2023/07/01 19:01:50.471, 104, 108, 73
2023/07/01 19:01:51.591, 102, 116, 75
2023/07/01 19:01:52.726, 101, 114, 73
2023/07/01 19:01:53.862, 100, 114, 73
2023/07/01 19:01:54.983, 101, 112, 82
2023/07/01 19:01:56.119, 99, 115, 74
2023/07/01 19:01:57.239, 100, 111, 74
2023/07/01 19:01:58.374, 102, 108, 74
2023/07/01 19:01:59.510, 111, 109, 75
2023/07/01 19:02:00.630, 105, 109, 75
2023/07/01 19:02:01.766, 101, 111, 75
2023/07/01 19:02:02.886, 101, 113, 74
2023/07/01 19:02:04.021, 100, 106, 73
2023/07/01 19:02:05.158, 110, 108, 73
2023/07/01 19:02:06.278, 108, 107, 73
2023/07/01 19:02:07.414, 133, 111, 74
2023/07/01 19:02:08.534, 113, 107, 70
2023/07/01 19:02:09.670, 108, 111, 71
2023/07/01 19:02:10.806, 104, 106, 70
2023/07/01 19:02:11.926, 108, 105, 75
2023/07/01 19:02:13.061, 104, 106, 75
2023/07/01 19:02:14.182, 110, 112, 71
2023/07/01 19:02:15.317, 105, 108, 70
2023/07/01 19:02:16.453, 108, 106, 71
2023/07/01 19:02:17.573, 108, 109, 71
2023/07/01 19:02:18.709, 106, 119, 70
2023/07/01 19:02:19.829, 109, 109, 67
2023/07/01 19:02:20.965, 107, 106, 72
2023/07/01 19:02:22.101, 107, 112, 72
2023/07/01 19:02:23.221, 104, 106, 69
2023/07/01 19:02:24.357, 107, 109, 69
2023/07/01 19:02:25.477, 109, 105, 75
2023/07/01 19:02:26.613, 117, 105, 75
2023/07/01 19:02:27.749, 134, 107, 75
2023/07/01 19:02:28.869, 135, 112, 71
2023/07/01 19:02:30.005, 128, 114, 74
2023/07/01 19:02:31.125, 136, 117, 70
2023/07/01 19:02:32.261, 138, 117, 69
2023/07/01 19:02:33.396, 133, 108, 71
2023/07/01 19:02:34.516, 133, 105, 66
2023/07/01 19:02:35.652, 129, 108, 73
2023/07/01 19:02:36.772, 134, 106, 70
2023/07/01 19:02:37.908, 133, 104, 69
2023/07/01 19:02:39.028, 132, 105, 71
2023/07/01 19:02:40.164, 130, 109, 69
2023/07/01 19:02:41.300, 128, 111, 68
2023/07/01 19:02:42.419, 127, 104, 70
2023/07/01 19:02:43.556, 125, 107, 72
2023/07/01 19:02:44.692, 125, 104, 74
2023/07/01 19:02:45.812, 108, 109, 69
2023/07/01 19:02:46.948, 104, 104, 85
2023/07/01 19:02:48.068, 100, 121, 74
2023/07/01 19:02:49.204, 101, 113, 73
2023/07/01 19:02:50.339, 100, 114, 72
2023/07/01 19:02:51.459, 99, 107, 75
2023/07/01 19:02:52.595, 102, 104, 75
2023/07/01 19:02:53.715, 104, 103, 71
2023/07/01 19:02:54.851, 100, 101, 71
2023/07/01 19:02:55.971, 96, 101, 72
2023/07/01 19:02:57.107, 98, 104, 71
2023/07/01 19:02:58.243, 102, 102, 73
2023/07/01 19:02:59.363, 98, 101, 68
2023/07/01 19:03:00.499, 99, 104, 74
2023/07/01 19:03:01.619, 95, 107, 71
2023/07/01 19:03:02.755, 97, 110, 69
2023/07/01 19:03:03.875, 100, 103, 71
2023/07/01 19:03:05.011, 100, 103, 69
2023/07/01 19:03:06.147, 98, 102, 71
2023/07/01 19:03:07.267, 100, 104, 75
2023/07/01 19:03:08.402, 99, 105, 74
2023/07/01 19:03:09.522, 113, 103, 73
2023/07/01 19:03:10.658, 102, 105, 70
2023/07/01 19:03:11.793, 98, 103, 74
2023/07/01 19:03:12.914, 96, 106, 73
2023/07/01 19:03:14.050, 96, 109, 69
2023/07/01 19:03:15.170, 101, 110, 72
2023/07/01 19:03:16.306, 99, 101, 73
2023/07/01 19:03:17.426, 97, 105, 69
2023/07/01 19:03:18.562, 98, 104, 72
2023/07/01 19:03:19.682, 99, 108, 70
2023/07/01 19:03:20.818, 108, 103, 74
2023/07/01 19:03:21.954, 151, 102, 69
2023/07/01 19:03:23.074, 148, 107, 70
2023/07/01 19:03:24.210, 96, 106, 74
2023/07/01 19:03:25.329, 95, 103, 74
2023/07/01 19:03:26.465, 96, 102, 74
2023/07/01 19:03:27.585, 97, 101, 71
2023/07/01 19:03:28.721, 96, 109, 72
2023/07/01 19:03:29.857, 92, 111, 77
2023/07/01 19:03:30.977, 95, 105, 74
2023/07/01 19:03:32.113, 96, 104, 137
2023/07/01 19:03:33.233, 93, 102, 80
2023/07/01 19:03:34.368, 96, 101, 75
2023/07/01 19:03:35.488, 94, 105, 74
2023/07/01 19:03:36.625, 96, 110, 73
2023/07/01 19:03:37.745, 92, 109, 69
2023/07/01 19:03:38.881, 93, 119, 67
2023/07/01 19:03:40.000, 95, 118, 70
2023/07/01 19:03:41.137, 95, 118, 67
2023/07/01 19:03:42.272, 96, 103, 69
2023/07/01 19:03:43.392, 97, 102, 72
2023/07/01 19:03:44.528, 95, 103, 69
2023/07/01 19:03:45.648, 95, 100, 77
2023/07/01 19:03:46.784, 96, 108, 74
2023/07/01 19:03:47.904, 96, 107, 70
2023/07/01 19:03:49.040, 95, 99, 68
2023/07/01 19:03:50.160, 95, 102, 72
2023/07/01 19:03:51.295, 103, 102, 70
2023/07/01 19:03:52.432, 111, 98, 70
2023/07/01 19:03:53.552, 113, 101, 70
2023/07/01 19:03:54.688, 114, 100, 73
2023/07/01 19:03:55.808, 105, 100, 69
2023/07/01 19:03:56.944, 100, 102, 71
2023/07/01 19:03:58.079, 101, 100, 69
2023/07/01 19:03:59.199, 99, 100, 69
2023/07/01 19:04:00.335, 105, 104, 72
2023/07/01 19:04:01.455, 105, 101, 72
2023/07/01 19:04:02.591, 102, 106, 71
2023/07/01 19:04:03.727, 100, 117, 72
2023/07/01 19:04:04.847, 104, 112, 77
2023/07/01 19:04:05.983, 103, 137, 66
2023/07/01 19:04:07.103, 104, 105, 74
2023/07/01 19:04:08.239, 103, 99, 68
2023/07/01 19:04:09.375, 103, 101, 70
2023/07/01 19:04:10.495, 105, 98, 67
2023/07/01 19:04:11.631, 99, 97, 74
2023/07/01 19:04:12.751, 106, 108, 70
2023/07/01 19:04:13.887, 100, 99, 70
2023/07/01 19:04:15.007, 102, 99, 67
2023/07/01 19:04:16.142, 100, 99, 84
2023/07/01 19:04:17.262, 107, 99, 75
2023/07/01 19:04:18.398, 104, 98, 69
2023/07/01 19:04:19.518, 105, 98, 67
2023/07/01 19:04:20.653, 104, 121, 69
2023/07/01 19:04:21.790, 106, 102, 69
2023/07/01 19:04:22.910, 101, 96, 73
2023/07/01 19:04:24.045, 100, 94, 67
2023/07/01 19:04:25.166, 100, 104, 75
2023/07/01 19:04:26.302, 100, 101, 80
2023/07/01 19:04:27.438, 105, 107, 70
2023/07/01 19:04:28.558, 102, 95, 73
2023/07/01 19:04:29.694, 102, 95, 66
2023/07/01 19:04:30.814, 99, 101, 72
2023/07/01 19:04:31.950, 105, 98, 70
2023/07/01 19:04:33.070, 101, 95, 66
2023/07/01 19:04:34.205, 100, 97, 70
2023/07/01 19:04:35.325, 101, 96, 69
2023/07/01 19:04:36.461, 96, 98, 68
2023/07/01 19:04:37.581, 101, 96, 67
2023/07/01 19:04:38.717, 103, 99, 70
2023/07/01 19:04:39.837, 100, 99, 69
2023/07/01 19:04:40.973, 105, 96, 65
2023/07/01 19:04:42.109, 101, 96, 70
2023/07/01 19:04:43.229, 102, 100, 68
2023/07/01 19:04:44.365, 99, 99, 73
2023/07/01 19:04:45.485, 98, 98, 72
2023/07/01 19:04:46.621, 102, 97, 74
2023/07/01 19:04:47.741, 103, 98, 77
2023/07/01 19:04:48.877, 100, 97, 68
2023/07/01 19:04:49.997, 102, 96, 69
2023/07/01 19:04:51.132, 104, 102, 67
2023/07/01 19:04:52.268, 106, 97, 69
2023/07/01 19:04:53.388, 101, 95, 67
2023/07/01 19:04:54.524, 100, 98, 70
2023/07/01 19:04:55.644, 95, 95, 70
2023/07/01 19:04:56.779, 94, 96, 72
2023/07/01 19:04:57.900, 96, 97, 74
2023/07/01 19:04:59.035, 94, 96, 68
2023/07/01 19:05:00.156, 94, 97, 71
2023/07/01 19:05:01.292, 95, 95, 71
2023/07/01 19:05:02.412, 96, 95, 67
2023/07/01 19:05:03.547, 92, 98, 72
2023/07/01 19:05:04.668, 97, 95, 78
2023/07/01 19:05:05.803, 93, 94, 74
2023/07/01 19:05:06.923, 92, 97, 68
2023/07/01 19:05:08.059, 97, 96, 72
2023/07/01 19:05:09.180, 94, 96, 69
2023/07/01 19:05:10.315, 96, 99, 68
2023/07/01 19:05:11.435, 91, 101, 65
2023/07/01 19:05:12.571, 94, 92, 67
2023/07/01 19:05:13.691, 93, 99, 69
2023/07/01 19:05:14.827, 93, 95, 70
2023/07/01 19:05:15.947, 91, 94, 64
2023/07/01 19:05:17.083, 94, 96, 71
2023/07/01 19:05:18.203, 94, 94, 69
2023/07/01 19:05:19.338, 93, 94, 67
2023/07/01 19:05:20.459, 92, 99, 69
2023/07/01 19:05:21.595, 93, 96, 71
2023/07/01 19:05:22.714, 98, 96, 71
2023/07/01 19:05:23.851, 97, 96, 71
2023/07/01 19:05:24.970, 94, 93, 71
2023/07/01 19:05:26.106, 93, 93, 69
2023/07/01 19:05:27.227, 95, 96, 71
2023/07/01 19:05:28.362, 91, 95, 67
2023/07/01 19:05:29.482, 93, 94, 68
2023/07/01 19:05:30.617, 91, 94, 70
2023/07/01 19:05:31.738, 94, 96, 67
2023/07/01 19:05:32.873, 93, 93, 68
2023/07/01 19:05:33.994, 92, 95, 67
2023/07/01 19:05:35.130, 92, 94, 67
2023/07/01 19:05:36.249, 96, 94, 71
2023/07/01 19:05:37.386, 96, 95, 67
2023/07/01 19:05:38.506, 93, 94, 69
2023/07/01 19:05:39.641, 92, 95, 69
2023/07/01 19:05:40.761, 95, 104, 65
2023/07/01 19:05:41.897, 93, 97, 68
2023/07/01 19:05:43.017, 93, 96, 65
2023/07/01 19:05:44.153, 92, 97, 70
2023/07/01 19:05:45.273, 91, 97, 66
2023/07/01 19:05:46.409, 92, 96, 70
2023/07/01 19:05:47.529, 91, 97, 71
2023/07/01 19:05:48.665, 91, 95, 66
2023/07/01 19:05:49.785, 93, 97, 68
2023/07/01 19:05:50.921, 93, 101, 67
2023/07/01 19:05:52.041, 95, 99, 68
2023/07/01 19:05:53.177, 99, 96, 69
2023/07/01 19:05:54.297, 114, 96, 72
2023/07/01 19:05:55.433, 92, 100, 65
2023/07/01 19:05:56.568, 91, 111, 64
2023/07/01 19:05:57.689, 93, 98, 73
2023/07/01 19:05:58.824, 98, 98, 68
2023/07/01 19:05:59.944, 92, 95, 65
2023/07/01 19:06:01.080, 96, 98, 64
2023/07/01 19:06:02.200, 95, 99, 68
2023/07/01 19:06:03.336, 96, 110, 68
2023/07/01 19:06:04.456, 95, 101, 67
2023/07/01 19:06:05.592, 95, 99, 64
2023/07/01 19:06:06.712, 97, 99, 67
2023/07/01 19:06:07.848, 101, 99, 70
2023/07/01 19:06:08.968, 117, 101, 69
2023/07/01 19:06:10.104, 150, 99, 69
2023/07/01 19:06:11.224, 158, 104, 67
2023/07/01 19:06:12.360, 160, 97, 66
2023/07/01 19:06:13.496, 164, 100, 65
2023/07/01 19:06:14.616, 163, 100, 68
2023/07/01 19:06:15.751, 162, 98, 67
2023/07/01 19:06:16.871, 159, 99, 68
2023/07/01 19:06:18.007, 159, 98, 68
2023/07/01 19:06:19.127, 155, 99, 72
2023/07/01 19:06:20.263, 109, 96, 71
2023/07/01 19:06:21.399, 98, 95, 70
2023/07/01 19:06:22.519, 99, 100, 67
2023/07/01 19:06:23.655, 106, 100, 65
2023/07/01 19:06:24.775, 100, 101, 65
2023/07/01 19:06:25.911, 100, 100, 68
2023/07/01 19:06:27.030, 98, 97, 66
2023/07/01 19:06:28.167, 95, 97, 64
2023/07/01 19:06:29.286, 100, 98, 68
2023/07/01 19:06:30.423, 99, 103, 66
2023/07/01 19:06:31.542, 98, 97, 67
2023/07/01 19:06:32.679, 101, 99, 67
2023/07/01 19:06:33.798, 99, 97, 68
2023/07/01 19:06:34.934, 100, 100, 72
2023/07/01 19:06:36.070, 100, 98, 64
2023/07/01 19:06:37.190, 98, 99, 66
2023/07/01 19:06:38.326, 98, 101, 70
2023/07/01 19:06:39.446, 117, 99, 67
2023/07/01 19:06:40.582, 111, 103, 70
2023/07/01 19:06:41.702, 98, 105, 66
2023/07/01 19:06:42.838, 97, 97, 66
2023/07/01 19:06:43.958, 98, 99, 69
2023/07/01 19:06:45.094, 96, 102, 69
2023/07/01 19:06:46.214, 97, 100, 67
2023/07/01 19:06:47.350, 92, 99, 70
2023/07/01 19:06:48.469, 96, 99, 69
2023/07/01 19:06:49.605, 101, 100, 67
2023/07/01 19:06:50.741, 99, 97, 71
2023/07/01 19:06:51.861, 94, 100, 66
2023/07/01 19:06:52.997, 96, 96, 71
2023/07/01 19:06:54.117, 98, 96, 73
2023/07/01 19:06:55.253, 92, 99, 69
2023/07/01 19:06:56.373, 95, 96, 66
2023/07/01 19:06:57.509, 95, 96, 66
2023/07/01 19:06:58.629, 98, 98, 63
2023/07/01 19:06:59.765, 95, 100, 75
2023/07/01 19:07:00.885, 95, 99, 69
2023/07/01 19:07:02.021, 97, 101, 68
2023/07/01 19:07:03.141, 97, 96, 72
2023/07/01 19:07:04.277, 98, 96, 63
2023/07/01 19:07:05.397, 101, 94, 70
2023/07/01 19:07:06.532, 97, 93, 66
2023/07/01 19:07:07.652, 100, 93, 66
2023/07/01 19:07:08.788, 95, 90, 67
2023/07/01 19:07:09.908, 92, 93, 71
2023/07/01 19:07:11.044, 93, 91, 72
2023/07/01 19:07:12.164, 103, 90, 67
2023/07/01 19:07:13.300, 112, 92, 64
2023/07/01 19:07:14.436, 113, 87, 68
2023/07/01 19:07:15.556, 118, 92, 64
2023/07/01 19:07:16.692, 115, 94, 69
2023/07/01 19:07:17.812, 115, 90, 68
2023/07/01 19:07:18.948, 114, 91, 66
2023/07/01 19:07:20.068, 112, 91, 68
2023/07/01 19:07:21.204, 111, 90, 68
2023/07/01 19:07:22.323, 115, 93, 67
2023/07/01 19:07:23.459, 118, 93, 68
2023/07/01 19:07:24.579, 107, 92, 65
2023/07/01 19:07:25.715, 95, 93, 68
2023/07/01 19:07:26.851, 90, 92, 70
2023/07/01 19:07:27.971, 88, 92, 66
2023/07/01 19:07:29.091, 91, 90, 62
2023/07/01 19:07:30.227, 88, 91, 66
2023/07/01 19:07:31.347, 92, 91, 70
2023/07/01 19:07:32.483, 93, 92, 67
2023/07/01 19:07:33.603, 91, 95, 66
2023/07/01 19:07:34.739, 91, 89, 68
2023/07/01 19:07:35.859, 91, 86, 65
2023/07/01 19:07:36.995, 93, 93, 69
2023/07/01 19:07:38.114, 91, 91, 70
2023/07/01 19:07:39.251, 89, 90, 69
2023/07/01 19:07:40.371, 90, 91, 68
2023/07/01 19:07:41.506, 87, 90, 69
2023/07/01 19:07:42.626, 88, 97, 66
2023/07/01 19:07:43.762, 101, 86, 67
2023/07/01 19:07:44.882, 90, 88, 66
2023/07/01 19:07:46.018, 92, 89, 67
2023/07/01 19:07:47.138, 91, 97, 68
2023/07/01 19:07:48.273, 91, 94, 71
2023/07/01 19:07:49.394, 91, 98, 69
2023/07/01 19:07:50.530, 89, 99, 64
2023/07/01 19:07:51.650, 94, 93, 68
2023/07/01 19:07:52.786, 89, 93, 63
2023/07/01 19:07:53.906, 90, 103, 66
2023/07/01 19:07:55.041, 91, 96, 69
2023/07/01 19:07:56.162, 93, 99, 69
2023/07/01 19:07:57.297, 88, 90, 70
2023/07/01 19:07:58.433, 88, 94, 69
2023/07/01 19:07:59.553, 88, 94, 68
2023/07/01 19:08:00.689, 93, 121, 69
2023/07/01 19:08:01.809, 88, 106, 67
2023/07/01 19:08:02.945, 91, 91, 71
2023/07/01 19:08:04.065, 88, 89, 67
2023/07/01 19:08:05.200, 91, 89, 70
2023/07/01 19:08:06.321, 83, 90, 66
2023/07/01 19:08:07.457, 94, 93, 71
2023/07/01 19:08:08.577, 91, 90, 67
2023/07/01 19:08:09.712, 89, 90, 63
2023/07/01 19:08:10.833, 88, 90, 65
2023/07/01 19:08:11.969, 89, 92, 65
2023/07/01 19:08:13.089, 88, 90, 68
2023/07/01 19:08:14.224, 91, 90, 65
2023/07/01 19:08:15.344, 92, 90, 64
2023/07/01 19:08:16.480, 89, 89, 64
2023/07/01 19:08:17.600, 91, 89, 68
2023/07/01 19:08:18.736, 86, 97, 67
2023/07/01 19:08:19.856, 90, 91, 67
2023/07/01 19:08:20.992, 89, 91, 65
2023/07/01 19:08:22.112, 88, 87, 65
2023/07/01 19:08:23.248, 90, 91, 68
2023/07/01 19:08:24.368, 88, 89, 67
2023/07/01 19:08:25.504, 90, 91, 72
2023/07/01 19:08:26.624, 89, 91, 72
2023/07/01 19:08:27.759, 91, 92, 69
2023/07/01 19:08:28.880, 91, 95, 77
2023/07/01 19:08:30.016, 88, 89, 71
2023/07/01 19:08:31.136, 92, 92, 75
2023/07/01 19:08:32.271, 88, 91, 73
2023/07/01 19:08:33.391, 89, 90, 66
2023/07/01 19:08:34.527, 87, 95, 66
2023/07/01 19:08:35.647, 89, 95, 70
2023/07/01 19:08:36.783, 86, 90, 70
2023/07/01 19:08:37.903, 90, 94, 68
2023/07/01 19:08:39.039, 93, 96, 67
2023/07/01 19:08:40.159, 91, 92, 67
2023/07/01 19:08:41.295, 91, 89, 64
2023/07/01 19:08:42.415, 89, 89, 67
2023/07/01 19:08:43.551, 91, 86, 67
2023/07/01 19:08:44.670, 94, 90, 66
2023/07/01 19:08:45.806, 91, 90, 62
2023/07/01 19:08:46.927, 88, 89, 70
2023/07/01 19:08:48.062, 89, 91, 102
2023/07/01 19:08:49.182, 92, 88, 82
2023/07/01 19:08:50.318, 87, 89, 70
2023/07/01 19:08:51.438, 89, 90, 68
2023/07/01 19:08:52.574, 87, 91, 70
2023/07/01 19:08:53.694, 89, 90, 64
2023/07/01 19:08:54.829, 90, 89, 67
2023/07/01 19:08:55.950, 90, 88, 67
2023/07/01 19:08:57.086, 89, 87, 66
2023/07/01 19:08:58.206, 94, 88, 67
2023/07/01 19:08:59.342, 93, 90, 64
2023/07/01 19:09:00.462, 88, 90, 66
2023/07/01 19:09:01.598, 89, 90, 64
2023/07/01 19:09:02.718, 88, 91, 71
2023/07/01 19:09:03.854, 89, 90, 70
2023/07/01 19:09:04.974, 91, 93, 73
2023/07/01 19:09:06.109, 89, 85, 63
2023/07/01 19:09:07.229, 88, 88, 71
2023/07/01 19:09:08.365, 90, 88, 65
2023/07/01 19:09:09.485, 88, 90, 65
2023/07/01 19:09:10.621, 87, 87, 66
2023/07/01 19:09:11.741, 89, 90, 66
2023/07/01 19:09:12.876, 89, 90, 67
2023/07/01 19:09:13.997, 86, 88, 65
2023/07/01 19:09:15.133, 89, 89, 67
2023/07/01 19:09:16.253, 88, 90, 65
2023/07/01 19:09:17.388, 88, 85, 65
2023/07/01 19:09:18.509, 88, 86, 67
2023/07/01 19:09:19.644, 91, 89, 65
2023/07/01 19:09:20.765, 89, 89, 65
2023/07/01 19:09:21.900, 90, 87, 65
2023/07/01 19:09:23.020, 93, 91, 63
2023/07/01 19:09:24.156, 90, 91, 65
2023/07/01 19:09:25.276, 91, 89, 65
2023/07/01 19:09:26.412, 90, 87, 68
2023/07/01 19:09:27.532, 94, 88, 68
2023/07/01 19:09:28.668, 89, 92, 66
2023/07/01 19:09:29.788, 90, 86, 64
2023/07/01 19:09:30.923, 91, 89, 68
2023/07/01 19:09:32.044, 91, 88, 67
2023/07/01 19:09:33.180, 89, 92, 65
2023/07/01 19:09:34.300, 91, 90, 68
2023/07/01 19:09:35.435, 92, 91, 64
2023/07/01 19:09:36.556, 88, 95, 67
2023/07/01 19:09:37.691, 90, 98, 65
2023/07/01 19:09:38.811, 90, 97, 67
2023/07/01 19:09:39.947, 88, 92, 63
2023/07/01 19:09:41.067, 88, 92, 67
2023/07/01 19:09:42.203, 90, 95, 65
2023/07/01 19:09:43.323, 91, 98, 66
2023/07/01 19:09:44.459, 91, 95, 66
2023/07/01 19:09:45.579, 88, 92, 64
2023/07/01 19:09:46.715, 99, 92, 67
2023/07/01 19:09:47.835, 92, 93, 66
2023/07/01 19:09:48.970, 91, 93, 65
2023/07/01 19:09:50.091, 90, 94, 64
2023/07/01 19:09:51.227, 90, 98, 65
2023/07/01 19:09:52.347, 88, 93, 66
2023/07/01 19:09:53.482, 89, 92, 67
2023/07/01 19:09:54.603, 91, 92, 64
2023/07/01 19:09:55.738, 90, 93, 68
2023/07/01 19:09:56.858, 91, 93, 69
2023/07/01 19:09:57.994, 88, 90, 65
2023/07/01 19:09:59.114, 91, 91, 66
2023/07/01 19:10:00.250, 90, 94, 69
2023/07/01 19:10:01.370, 91, 91, 63
2023/07/01 19:10:02.505, 88, 92, 63
2023/07/01 19:10:03.626, 89, 92, 65
2023/07/01 19:10:04.762, 91, 88, 68
2023/07/01 19:10:05.882, 90, 92, 65
2023/07/01 19:10:07.017, 90, 93, 68
2023/07/01 19:10:08.138, 91, 90, 67
2023/07/01 19:10:09.273, 90, 88, 64
2023/07/01 19:10:10.394, 91, 92, 66
2023/07/01 19:10:11.529, 95, 91, 64
2023/07/01 19:10:12.650, 87, 92, 65
2023/07/01 19:10:13.785, 92, 93, 67
2023/07/01 19:10:14.905, 89, 95, 62
2023/07/01 19:10:16.041, 90, 90, 62
2023/07/01 19:10:17.161, 90, 91, 67
2023/07/01 19:10:18.297, 88, 94, 69
2023/07/01 19:10:19.417, 91, 95, 68
2023/07/01 19:10:20.553, 87, 89, 67
2023/07/01 19:10:21.673, 94, 89, 70
2023/07/01 19:10:22.809, 90, 88, 67
2023/07/01 19:10:23.929, 86, 90, 68
2023/07/01 19:10:25.064, 89, 89, 69
2023/07/01 19:10:26.185, 89, 89, 66
2023/07/01 19:10:27.321, 91, 91, 65
2023/07/01 19:10:28.441, 89, 88, 67
2023/07/01 19:10:29.576, 92, 88, 66
2023/07/01 19:10:30.696, 88, 85, 65
2023/07/01 19:10:31.832, 91, 88, 64
2023/07/01 19:10:32.952, 93, 87, 64
2023/07/01 19:10:34.088, 90, 89, 63
2023/07/01 19:10:35.208, 90, 87, 64
2023/07/01 19:10:36.344, 91, 89, 65
2023/07/01 19:10:37.464, 91, 88, 68
2023/07/01 19:10:38.600, 90, 88, 63
2023/07/01 19:10:39.720, 90, 90, 66
2023/07/01 19:10:40.856, 91, 92, 68
2023/07/01 19:10:41.976, 95, 93, 64
2023/07/01 19:10:43.112, 92, 87, 65
2023/07/01 19:10:44.232, 126, 92, 66
2023/07/01 19:10:45.368, 90, 90, 66
2023/07/01 19:10:46.488, 89, 86, 62
2023/07/01 19:10:47.623, 88, 87, 67
2023/07/01 19:10:48.743, 91, 89, 65
2023/07/01 19:10:49.879, 91, 86, 65
2023/07/01 19:10:50.999, 92, 88, 63
2023/07/01 19:10:52.135, 95, 88, 66
2023/07/01 19:10:53.255, 93, 87, 65
2023/07/01 19:10:54.391, 95, 89, 63
2023/07/01 19:10:55.511, 98, 90, 69
2023/07/01 19:10:56.646, 94, 90, 64
2023/07/01 19:10:57.767, 98, 83, 69
2023/07/01 19:10:58.903, 98, 88, 65
2023/07/01 19:11:00.022, 97, 86, 64
2023/07/01 19:11:01.158, 94, 86, 64
2023/07/01 19:11:02.279, 94, 88, 65
2023/07/01 19:11:03.415, 93, 90, 69
2023/07/01 19:11:04.534, 95, 90, 64
2023/07/01 19:11:05.669, 93, 87, 63
2023/07/01 19:11:06.790, 97, 88, 68
2023/07/01 19:11:07.926, 99, 87, 69
2023/07/01 19:11:09.046, 98, 87, 67
2023/07/01 19:11:10.181, 96, 85, 67
2023/07/01 19:11:11.302, 97, 87, 68
2023/07/01 19:11:12.438, 93, 86, 70
2023/07/01 19:11:13.558, 94, 87, 67
2023/07/01 19:11:14.694, 95, 86, 64
2023/07/01 19:11:15.814, 95, 89, 64
2023/07/01 19:11:16.950, 95, 86, 69
2023/07/01 19:11:18.070, 96, 89, 61
2023/07/01 19:11:19.205, 98, 87, 64
2023/07/01 19:11:20.326, 94, 88, 67
2023/07/01 19:11:21.462, 98, 87, 62
2023/07/01 19:11:22.581, 97, 89, 65
2023/07/01 19:11:23.716, 95, 90, 66
2023/07/01 19:11:24.837, 96, 91, 67
2023/07/01 19:11:25.973, 97, 88, 65
2023/07/01 19:11:27.093, 95, 91, 66
2023/07/01 19:11:28.229, 96, 87, 63
2023/07/01 19:11:29.349, 100, 87, 65
2023/07/01 19:11:30.485, 95, 88, 62
2023/07/01 19:11:31.605, 94, 88, 63
2023/07/01 19:11:32.741, 94, 88, 63
2023/07/01 19:11:33.861, 95, 85, 65
2023/07/01 19:11:34.997, 95, 90, 63
2023/07/01 19:11:36.117, 95, 88, 65
2023/07/01 19:11:37.252, 98, 87, 63
2023/07/01 19:11:38.372, 95, 89, 66
2023/07/01 19:11:39.508, 95, 87, 63
2023/07/01 19:11:40.628, 93, 90, 61
2023/07/01 19:11:41.764, 100, 87, 69
2023/07/01 19:11:42.884, 96, 84, 66
2023/07/01 19:11:44.019, 96, 90, 64
2023/07/01 19:11:45.140, 95, 87, 64
2023/07/01 19:11:46.276, 100, 86, 66
2023/07/01 19:11:47.396, 99, 92, 66
2023/07/01 19:11:48.532, 97, 89, 66
2023/07/01 19:11:49.652, 100, 89, 63
2023/07/01 19:11:50.787, 98, 92, 65
2023/07/01 19:11:51.908, 99, 91, 65
2023/07/01 19:11:53.044, 97, 86, 64
2023/07/01 19:11:54.164, 97, 87, 70
2023/07/01 19:11:55.300, 95, 89, 67
2023/07/01 19:11:56.419, 90, 89, 66
2023/07/01 19:11:57.555, 96, 89, 67
2023/07/01 19:11:58.675, 92, 90, 69
2023/07/01 19:11:59.811, 92, 90, 66
2023/07/01 19:12:00.931, 90, 86, 64
2023/07/01 19:12:02.067, 92, 88, 64
2023/07/01 19:12:03.187, 91, 86, 67
2023/07/01 19:12:04.322, 90, 92, 63